Вернуться в каталог

QIANFAN-107

АктивенСвязьPO
NORAD 66049·PAYLOAD·🇨🇳 China

Запущен Oct 17, 2025 с Taiyuan Satellite Launch Center

Loading…

Ближайшие Пролёты (ближайшие 24 часа)

TLE

СвежийSource: Space-Track

Эпоха: Sep 14, 2026, 19:32 UTC

1 66049U 25233S   26257.81442377  .00000077  00000-0  10067-3 0  9999
2 66049  89.0056  34.1313 0001893  93.9578 266.1790 13.51028787 45295

Отслеживайте QIANFAN-107 в реальном времени с AllMySat

Download on the App Store